Theta_e
319 312 312 308 301 297 293 295 296 298 298 302 301 300 301 304 301 298 318 330 338 341 345 348 350 351 351 350 350 349 348 346 343 342 341 339 338 338 339 338 339 338 339 341 337 342 341 338 338
314 312 309 302 296 291 292 294 295 297 303 304 303 304 305 305 313 319 327 334 341 344 346 347 346 350 351 351 350 349 348 345 342 341 340 337 336 336 336 336 336 336 338 336 339 340 340 336 336
311 307 305 296 291 291 291 295 297 299 302 300 304 307 307 308 315 321 324 336 343 345 346 346 345 349 351 350 349 348 347 345 341 340 338 336 334 334 333 333 334 335 336 336 337 337 337 334 333
308 306 299 295 293 294 295 297 298 300 301 301 305 304 310 317 315 320 334 342 343 345 346 344 347 350 350 349 348 347 346 344 341 339 337 335 332 331 330 329 329 330 333 334 333 333 334 330 328
300 300 294 291 293 294 294 297 297 298 299 301 302 302 307 317 320 329 336 342 341 344 345 346 345 348 349 348 347 346 346 344 340 338 336 335 332 330 328 326 326 326 327 328 328 328 327 324 322
298 297 291 290 291 294 296 297 297 297 298 301 303 304 307 314 318 327 339 341 343 343 344 345 339 342 345 347 346 345 345 343 340 338 337 336 334 332 330 331 330 328 325 324 324 323 322 321 319
297 293 291 290 290 293 296 296 296 296 297 300 305 301 307 312 320 327 337 338 341 343 343 343 343 340 336 339 340 341 342 341 340 339 338 337 335 334 333 332 331 330 329 327 324 321 320 319 318
294 293 289 288 290 292 295 296 297 296 297 302 304 301 304 314 323 328 333 332 333 335 341 341 342 342 343 342 334 336 338 338 338 336 333 332 331 331 331 329 331 330 329 328 326 323 321 318 316
295 289 287 289 289 293 295 295 296 298 298 299 300 302 306 314 322 324 324 324 325 323 330 339 340 341 342 340 336 333 333 333 333 331 327 327 330 329 329 327 329 328 327 326 324 323 321 318 315
291 287 288 291 291 293 295 295 296 296 297 297 299 300 304 319 320 322 324 325 324 322 319 331 339 339 340 338 339 339 338 336 335 332 331 330 329 326 324 321 321 321 323 323 322 320 316 312 311
292 289 290 292 294 295 295 294 296 295 294 297 298 299 303 317 318 321 324 324 322 319 316 320 327 335 338 337 337 340 337 337 334 331 330 328 325 322 321 320 319 316 312 313 312 313 313 312 310
290 292 292 295 295 294 294 295 294 294 298 298 298 300 304 315 317 319 321 318 315 314 315 316 319 329 335 336 337 336 335 334 333 330 328 326 323 320 319 317 316 314 311 308 307 308 309 309 307
292 292 294 295 294 293 295 295 295 294 296 298 297 299 302 311 317 316 317 314 312 312 313 315 317 328 330 334 333 335 333 331 331 330 328 325 322 318 315 313 313 308 305 304 305 307 307 304 303
292 293 294 295 295 295 294 293 294 295 296 297 296 297 300 304 313 309 310 310 308 310 311 313 319 326 326 325 326 326 327 329 328 327 326 324 320 315 311 309 305 301 299 300 304 306 303 302 300
293 291 293 294 293 294 295 292 293 295 295 296 296 296 297 300 304 311 313 310 308 308 309 311 316 320 321 318 316 316 317 319 326 325 323 320 317 312 308 302 298 296 296 301 302 302 301 299 296
290 290 287 291 293 293 294 289 294 294 294 295 295 295 295 297 300 302 305 306 305 306 307 310 313 314 314 314 312 311 311 311 312 315 317 315 311 308 302 298 296 294 295 299 300 300 298 296 294
287 283 285 289 293 292 292 290 294 294 293 294 294 294 295 295 296 298 301 303 303 304 306 307 309 310 309 308 306 305 304 305 303 307 308 305 303 301 299 295 294 294 295 297 297 298 297 293 291
284 284 285 286 290 290 289 290 293 293 293 294 294 294 294 295 297 298 298 300 301 302 304 306 306 306 305 303 301 300 300 299 300 300 301 302 300 298 297 294 293 293 292 292 295 295 294 292 290
286 285 285 288 291 290 289 289 293 294 292 293 295 295 295 295 299 296 297 299 299 300 301 306 304 302 302 302 299 299 296 294 294 297 298 298 297 296 294 293 291 291 292 293 293 293 291 288 290
287 286 286 289 290 290 289 288 291 294 293 295 298 298 297 296 293 294 296 297 298 299 300 303 303 301 302 303 298 297 294 291 291 291 292 295 294 293 291 290 289 291 289 289 291 292 287 286 286
286 286 285 287 289 288 287 286 288 292 294 296 295 298 297 295 292 293 294 296 298 299 299 300 301 301 302 296 293 291 291 291 289 289 289 289 289 289 289 287 287 288 290 289 288 290 289 285 283
284 289 288 287 286 282 287 282 287 291 292 292 296 294 294 294 293 293 294 295 297 299 298 300 300 300 297 296 294 295 294 292 289 288 287 287 288 287 287 286 286 285 285 285 285 285 286 286 282
287 289 287 286 285 283 283 282 286 288 289 293 295 294 294 293 292 292 293 295 297 299 298 299 300 298 296 297 296 297 294 289 288 287 286 286 286 286 285 285 285 284 285 283 284 284 284 285 284
290 288 287 285 283 279 284 285 287 288 290 292 293 293 293 293 292 291 293 294 296 299 298 298 297 295 295 295 295 295 289 288 286 285 285 285 285 284 285 284 283 283 283 282 282 282 283 282 282
288 287 281 279 277 280 282 282 289 292 292 292 293 292 292 291 290 290 291 293 295 296 297 297 295 293 293 294 293 292 289 288 287 286 285 283 283 282 282 282 281 281 281 281 281 281 280 281 280
286 287 282 275 276 280 282 280 286 290 291 291 291 291 291 290 289 289 290 293 294 295 297 297 294 292 293 292 290 290 289 287 286 286 285 284 283 282 282 281 281 280 280 280 280 280 280 280 279
286 284 289 282 270 276 282 284 289 291 291 291 291 290 290 289 288 288 289 292 295 296 296 295 293 292 292 290 289 288 288 287 286 285 285 283 283 281 281 280 279 279 279 279 279 279 278 279 279
288 290 284 283 277 275 280 280 285 289 289 290 289 289 289 287 287 287 288 290 293 295 295 293 292 291 290 289 288 287 287 286 285 284 282 282 281 280 280 279 278 278 278 278 278 278 278 278 278
285 285 285 286 283 277 274 282 287 290 290 290 289 290 289 287 287 287 287 289 290 290 291 291 291 290 288 288 287 286 286 285 284 283 282 281 280 279 278 278 278 277 277 277 278 277 277 277 277
288 288 288 284 279 280 279 284 289 289 290 290 290 289 288 287 287 286 286 287 288 289 290 290 290 288 288 288 287 285 285 284 283 282 282 281 280 279 278 278 278 277 277 277 277 277 277 276 276
Wind_Speed
4 3 2 5 6 5 1 3 1 2 1 1 4 4 5 2 4 2 1 7 6 10 8 11 11 12 13 13 13 13 14 13 15 15 16 16 17 16 17 16 15 15 16 17 17 18 18 19 19
1 2 4 3 6 3 4 3 4 4 3 6 3 2 2 2 1 3 5 5 9 11 9 9 10 12 13 13 12 12 15 13 14 15 16 16 16 16 17 16 15 16 15 17 16 18 18 19 19
2 3 5 5 3 3 4 4 4 2 6 1 3 2 3 3 0 6 2 9 11 10 9 9 10 12 13 12 12 11 14 14 14 15 15 16 16 16 16 16 16 17 16 18 18 17 17 18 19
2 5 5 5 2 4 4 3 4 6 3 3 3 3 2 1 2 1 6 11 12 10 9 10 10 12 12 12 12 12 14 15 15 15 15 16 16 16 16 16 17 16 17 17 18 17 18 19 19
4 4 5 3 2 3 3 2 6 5 1 2 2 3 2 2 2 4 9 11 12 10 9 10 10 11 11 11 12 13 13 15 15 15 15 16 16 16 16 17 17 17 17 18 17 18 19 20 20
5 4 5 2 3 3 3 5 5 3 1 2 2 5 3 1 2 6 9 11 12 12 10 10 10 11 11 11 12 13 13 15 15 15 16 16 16 17 17 17 17 17 17 18 18 18 19 19 20
7 5 5 5 2 3 5 8 5 6 4 4 4 5 2 2 3 6 7 6 8 10 12 10 10 9 10 11 11 12 14 15 15 15 14 14 14 15 15 15 16 17 17 18 18 18 18 19 20
6 6 4 3 4 5 4 6 2 6 5 2 3 4 3 4 6 6 5 4 4 0 9 10 10 9 9 9 12 12 13 13 13 14 13 11 11 12 12 10 14 16 17 18 19 18 19 20 20
3 6 2 5 7 4 3 5 1 1 5 3 5 3 0 3 8 7 4 3 3 2 2 6 10 10 10 8 10 13 15 13 12 10 9 13 8 9 11 11 14 16 16 17 17 18 19 20 20
6 5 9 5 5 3 3 4 7 5 3 4 4 4 1 5 6 10 10 10 6 5 3 3 9 10 9 5 10 9 10 9 8 7 5 5 7 7 9 11 16 17 15 16 17 18 18 14 9
2 5 4 4 4 4 3 2 6 7 5 8 10 6 6 7 8 10 10 9 8 4 3 3 3 3 8 7 6 4 5 6 7 10 7 6 6 5 4 4 5 6 9 6 8 8 8 12 9
2 1 5 1 2 2 3 4 4 7 7 4 8 4 7 11 13 14 13 10 8 6 6 4 3 3 2 4 5 6 6 6 7 7 9 7 5 5 5 5 6 6 5 8 7 6 10 13 14
3 1 2 2 2 3 1 6 5 9 8 3 2 6 11 11 10 5 4 5 6 7 6 5 3 4 3 3 4 6 6 6 7 8 7 6 6 6 5 4 6 6 5 6 8 9 10 12 14
1 1 3 3 2 2 4 2 3 6 2 5 5 9 9 13 13 4 6 9 9 6 7 5 5 5 5 3 3 3 2 6 6 7 7 7 6 7 6 6 6 6 5 5 8 9 10 11 12
2 3 5 4 1 4 4 7 10 4 2 7 9 7 8 11 7 14 12 11 9 4 6 6 5 4 5 6 4 3 2 2 6 6 9 9 8 8 8 6 5 4 5 9 10 11 11 11 11
4 5 2 2 4 2 4 10 6 2 4 11 8 7 8 8 12 10 6 7 8 6 7 6 4 5 5 7 5 3 3 3 2 4 6 9 10 9 8 7 5 5 3 7 9 9 11 10 10
6 3 4 9 7 3 4 8 5 1 4 9 8 9 9 10 9 11 9 9 9 8 8 7 7 7 7 6 6 5 4 5 3 4 4 8 10 8 8 8 7 5 3 5 9 9 11 11 10
7 4 4 5 2 2 3 13 12 5 4 9 9 9 11 14 20 12 11 8 8 8 8 8 6 8 8 6 5 5 4 4 5 3 3 8 7 10 7 9 8 5 6 5 7 13 9 10 11
6 5 5 5 4 4 9 10 16 6 6 13 15 15 17 18 10 7 10 10 8 7 9 10 10 9 8 5 4 3 4 3 4 5 3 7 8 10 9 7 8 7 7 9 9 12 15 9 10
3 4 5 6 3 6 8 12 14 15 11 15 19 18 21 5 4 7 11 12 12 13 11 12 11 11 8 6 4 3 5 4 4 4 5 6 7 8 9 7 5 8 8 9 8 12 7 4 1
4 6 5 8 5 3 6 8 7 9 11 14 17 22 9 6 10 9 12 15 13 15 14 12 12 11 8 8 7 6 7 5 3 5 5 4 7 6 7 7 6 6 7 10 6 9 9 6 3
5 8 5 3 2 5 3 9 5 7 9 5 18 4 8 8 7 7 11 12 15 13 11 11 13 12 10 11 8 11 6 6 4 4 5 5 7 7 7 5 7 7 4 8 6 5 6 7 7
6 5 6 3 4 4 3 5 3 2 5 14 8 5 4 6 7 7 10 9 9 11 12 11 12 11 11 10 9 7 8 5 7 7 9 9 5 8 8 7 7 9 7 6 8 9 9 5 5
10 6 5 4 2 5 9 8 6 6 7 6 2 5 2 5 2 2 4 8 10 10 10 11 12 12 10 9 8 7 11 11 9 8 8 6 5 5 8 8 7 7 9 7 8 10 10 9 7
1 6 1 3 1 9 1 4 9 9 7 6 2 4 7 4 1 3 6 8 11 13 12 11 12 12 11 11 10 9 10 11 11 11 8 9 7 4 6 7 8 7 9 9 10 11 11 9 9
9 8 8 8 5 5 1 10 8 9 7 5 5 5 6 4 1 3 5 7 10 14 12 12 12 10 11 10 9 9 11 7 8 9 8 6 6 7 6 7 9 9 9 10 11 9 9 11 9
8 8 5 6 2 2 6 8 9 11 11 6 5 3 5 3 2 4 5 7 9 13 12 12 13 11 12 11 10 10 10 11 10 11 9 6 7 7 7 8 9 10 10 12 12 9 11 10 9
6 8 4 2 5 7 6 7 8 6 6 5 3 3 4 2 3 4 5 6 6 6 9 9 10 11 11 11 9 9 11 11 11 11 11 12 9 9 9 8 9 8 11 11 12 10 10 11 8
4 5 2 5 5 6 3 9 9 10 7 7 3 4 4 4 4 4 5 5 6 6 9 10 10 12 12 12 11 11 10 10 9 9 11 12 11 11 10 10 9 10 11 11 11 11 11 11 10
1 7 7 6 5 4 2 13 2 5 7 6 5 6 5 4 6 6 6 6 6 8 9 11 11 12 12 12 12 13 13 13 13 12 12 12 13 11 11 11 10 11 9 10 11 12 10 11 10
Wind_Direction
357 339 77 36 56 61 317 264 331 176 253 136 101 150 184 104 164 190 274 186 147 147 155 148 139 135 127 126 121 119 110 99 92 90 88 84 83 81 81 80 74 77 77 81 77 83 81 81 75
11 266 42 81 83 57 275 253 219 197 150 127 100 88 99 141 205 133 132 177 166 147 145 145 142 135 131 129 128 125 114 103 98 93 88 85 84 84 85 82 79 81 80 83 79 77 80 79 75
113 29 79 87 101 172 215 220 199 136 147 199 106 37 151 172 170 165 187 152 144 143 142 144 138 139 139 137 136 124 115 110 108 101 98 94 90 85 85 85 84 81 86 84 80 80 80 76 75
53 20 46 83 194 231 199 205 184 125 251 222 129 99 287 245 178 216 150 153 144 148 145 145 142 139 139 144 138 132 124 116 114 107 103 99 95 93 91 87 84 85 84 85 82 82 81 78 76
32 56 67 81 254 264 242 223 160 160 211 156 168 190 216 261 297 148 152 154 151 153 151 153 148 144 143 141 142 137 131 119 116 112 108 103 99 95 91 89 87 84 82 82 82 80 79 76 74
49 93 71 206 244 250 242 160 147 173 163 158 123 150 222 312 198 175 161 161 159 158 162 160 158 154 148 147 145 140 134 126 124 120 115 110 107 104 101 97 93 90 90 87 84 83 81 79 76
114 86 180 172 235 294 207 147 170 176 174 240 148 148 250 230 197 165 161 158 175 174 164 167 167 167 159 150 148 144 139 133 132 127 120 113 110 108 104 101 100 99 96 92 91 88 86 84 79
104 90 119 219 197 247 190 180 127 157 211 99 182 201 222 197 148 132 126 127 147 252 168 166 168 169 168 161 147 143 143 138 136 131 121 112 108 104 97 91 97 96 96 96 92 90 87 85 83
132 68 177 219 159 234 145 176 89 143 125 231 205 178 224 124 128 125 134 133 154 105 96 151 168 172 168 164 156 153 151 144 131 126 130 128 121 108 95 77 89 91 89 89 93 93 88 85 81
85 114 212 201 197 209 192 179 170 152 175 234 263 241 137 150 169 166 175 179 181 178 137 139 177 173 165 167 162 156 153 148 145 139 130 110 109 99 97 87 85 79 75 83 88 89 88 85 83
156 175 190 218 224 184 177 204 167 143 230 214 206 197 175 178 185 182 188 187 185 162 161 146 132 143 166 165 160 153 150 153 152 147 135 122 114 110 102 101 99 98 86 85 79 79 78 84 85
127 183 168 232 220 141 191 135 194 199 224 175 222 177 164 186 196 194 191 182 171 170 168 147 133 166 202 145 160 153 153 158 159 155 147 141 129 122 121 113 111 100 92 100 91 87 89 85 82
140 208 210 304 291 249 317 245 226 242 235 236 112 175 189 195 202 204 179 168 169 182 174 161 150 152 142 156 139 154 147 155 166 152 149 145 141 130 115 108 113 107 110 109 102 97 96 89 86
132 82 300 287 230 233 209 257 136 271 158 196 193 215 208 204 197 151 183 187 189 176 179 163 153 160 152 125 138 126 121 152 159 157 154 145 136 128 119 118 111 97 96 105 108 107 103 95 92
95 349 331 243 3 240 177 287 234 230 184 235 231 237 233 225 183 206 201 197 181 183 167 174 148 153 149 128 111 101 103 109 157 155 145 139 134 132 128 115 105 92 109 114 107 107 104 100 94
55 43 13 272 157 290 151 271 267 10 200 250 252 248 244 239 224 223 195 193 184 166 178 171 157 142 143 139 117 110 106 71 64 110 133 132 126 131 123 116 113 105 133 128 113 123 111 106 102
7 221 210 313 202 125 167 264 253 178 203 264 253 244 242 248 236 231 206 193 178 179 174 170 166 159 138 119 109 99 88 103 35 86 109 117 121 118 126 122 121 109 88 136 125 124 117 116 106
197 209 235 237 217 165 205 263 275 241 238 252 262 250 242 238 235 206 191 187 177 178 174 167 165 149 125 114 103 90 83 75 91 65 101 116 121 124 142 117 129 159 137 120 127 124 116 115 115
137 178 210 239 239 185 228 240 259 247 230 259 256 248 245 232 241 170 178 173 170 173 171 174 158 153 145 145 121 132 118 102 78 74 104 116 124 127 130 128 137 162 148 137 139 128 127 114 120
158 191 246 282 246 190 271 249 249 255 236 231 249 253 247 229 160 176 180 177 183 181 180 178 169 165 165 152 125 135 127 86 108 105 88 114 126 133 125 138 152 158 142 132 167 155 130 104 114
201 194 201 229 322 238 314 271 235 269 243 249 248 248 280 226 208 200 191 192 179 189 185 173 167 163 160 129 116 102 95 100 99 107 113 117 117 120 129 135 137 129 153 146 167 155 129 136 80
230 202 175 193 63 255 12 288 258 240 251 254 253 228 242 228 222 198 195 190 190 190 171 167 165 165 151 152 154 168 157 158 159 138 132 116 120 116 112 133 133 123 126 132 165 157 132 133 135
221 129 162 132 179 355 317 276 238 142 267 255 277 306 298 264 231 210 200 197 185 170 171 164 161 155 155 163 166 163 144 120 129 133 138 125 123 128 119 121 135 124 136 141 144 130 129 115 139
150 84 62 63 96 268 197 195 150 187 210 254 198 111 349 337 290 216 158 145 157 162 165 162 160 156 156 160 161 165 147 144 141 151 149 150 153 138 133 124 118 116 117 125 116 108 112 119 119
155 113 296 327 0 241 19 252 255 280 228 234 253 262 285 334 17 181 162 161 165 177 167 166 160 160 163 162 160 153 154 157 162 161 156 150 151 147 126 121 122 130 124 131 122 111 107 106 104
199 172 166 209 204 266 147 240 250 235 283 268 292 268 301 309 212 206 182 176 183 189 177 169 164 161 166 161 149 148 150 154 153 156 144 143 151 137 148 141 135 123 118 107 103 99 101 106 106
195 208 165 104 46 24 224 284 278 258 277 274 253 301 295 280 189 188 182 186 187 187 179 172 163 164 167 162 154 155 153 151 152 139 136 130 127 128 140 127 127 130 124 122 116 111 111 107 110
167 164 105 318 169 239 264 271 229 252 193 221 132 319 316 137 163 172 186 181 188 182 174 165 166 165 162 158 161 160 159 155 149 144 141 139 140 142 137 131 130 133 123 120 118 117 122 121 120
150 207 129 125 157 179 285 261 218 221 178 170 176 325 296 189 197 195 199 187 179 165 167 168 169 164 164 163 158 153 153 148 147 148 149 148 144 140 144 137 144 137 133 131 126 128 133 128 129
66 196 153 182 211 235 156 259 192 203 160 163 205 228 189 177 189 182 195 184 181 187 184 179 174 171 175 167 162 160 155 155 157 161 158 155 149 149 153 143 150 140 146 136 137 136 142 139 138